M I D A S
Marine Information and Data Acquisition System
Tripno 411 of the Zeeleeuw from 2003-01-08 07:41:15 to 2003-01-08 14:00:47
Back to CruiseResearch ActivitiesStationsMapUnderway DataData graphs

EquipmentUnitsComments
TimeDGPSUTC
LatitudeDGPSDM.mWGS84
LongitudeDGPSDM.mWGS84
SpeedMeteo Stationm/sRelative wind speed
DirectionMeteo StationdegRelative wind direction
TemperatureMeteo Stationdeg CelciusAir temperature
PressureMeteo StationPaAtmospheric pressure
HumidityMeteo Station%Relative humidity
Missing or incorrect values are displayed as -999
Metereological data collected by the RV Zeeleeuw from 2003-01-08 07:41:15 to 2003-01-08 14:00:47
                                                                                    Next 1000 lines
Time Latitude Longitude Speed Direction Temperature Pressure Humidity
2003-01-08 07:41:23 51°13.635 2°55.976 0.1 347 -4.8 101670 77
2003-01-08 07:41:27 51°13.637 2°55.969 0.5 278 -4.8 101670 77
2003-01-08 07:41:33 51°13.64 2°55.959 1 292 -4.8 101670 77
2003-01-08 07:41:38 51°13.642 2°55.951 1.5 283 -4.8 101670 77
2003-01-08 07:41:43 51°13.645 2°55.942 1.5 300 -4.9 101670 77
2003-01-08 07:41:47 51°13.647 2°55.935 0.9 342 -4.9 101670 77
2003-01-08 07:41:53 51°13.65 2°55.925 1.1 316 -4.8 101670 78
2003-01-08 07:41:58 51°13.653 2°55.916 1.4 339 -4.8 101670 78
2003-01-08 07:42:03 51°13.655 2°55.907 1.3 345 -4.8 101670 78
2003-01-08 07:42:07 51°13.657 2°55.9 1 304 -4.8 101670 78
2003-01-08 07:42:13 51°13.66 2°55.89 2 320 -4.8 101670 78
2003-01-08 07:42:18 51°13.662 2°55.881 2.1 302 -4.8 101670 78
2003-01-08 07:42:23 51°13.665 2°55.872 1.7 279 -4.8 101670 78
2003-01-08 07:42:27 51°13.667 2°55.865 1.8 306 -4.8 101670 78
2003-01-08 07:42:33 51°13.67 2°55.855 1.4 290 -4.8 101670 78
2003-01-08 07:42:37 51°13.671 2°55.848 1.1 289 -4.8 101670 78
2003-01-08 07:42:43 51°13.674 2°55.838 0.9 281 -4.8 101670 78
2003-01-08 07:42:47 51°13.675 2°55.832 0.7 299 -4.8 101670 78
2003-01-08 07:42:53 51°13.678 2°55.822 0.9 291 -4.8 101670 78
2003-01-08 07:42:57 51°13.679 2°55.816 1.1 272 -4.8 101670 78
2003-01-08 07:43:03 51°13.681 2°55.806 2.2 252 -4.8 101670 78
2003-01-08 07:43:07 51°13.683 2°55.8 2.7 247 -4.8 101670 78
2003-01-08 07:43:13 51°13.685 2°55.79 2.9 242 -4.8 101670 78
2003-01-08 07:43:17 51°13.686 2°55.784 2.3 241 -4.8 101670 78
2003-01-08 07:43:23 51°13.687 2°55.775 2 232 -4.8 101670 78
2003-01-08 07:43:27 51°13.688 2°55.769 3.3 247 -4.8 101670 78
2003-01-08 07:43:33 51°13.689 2°55.761 3.1 242 -4.8 101670 78
2003-01-08 07:43:37 51°13.69 2°55.755 2.6 241 -4.8 101670 78
2003-01-08 07:43:41 51°13.691 2°55.75 2 256 -4.8 101670 77
2003-01-08 07:43:47 51°13.692 2°55.743 2 219 -4.8 101670 77
2003-01-08 07:43:51 51°13.692 2°55.74 1.8 249 -4.8 101670 77
2003-01-08 07:43:57 51°13.693 2°55.734 1.7 236 -4.8 101670 77
2003-01-08 07:44:01 51°13.693 2°55.731 2.2 135 -4.8 101670 77
2003-01-08 07:44:07 51°13.694 2°55.728 2.6 212 -4.8 101670 77
2003-01-08 07:44:11 51°13.694 2°55.726 2.2 214 -4.9 101670 77
2003-01-08 07:44:17 51°13.695 2°55.725 2.9 203 -4.9 101670 77
2003-01-08 07:44:21 51°13.695 2°55.724 2.6 202 -4.8 101670 77
2003-01-08 07:44:27 51°13.696 2°55.724 3.1 214 -4.8 101670 77
2003-01-08 07:44:31 51°13.697 2°55.724 3.4 201 -4.8 101670 78
2003-01-08 07:44:37 51°13.698 2°55.724 2.8 198 -4.8 101670 78
2003-01-08 07:44:41 51°13.699 2°55.723 3.1 206 -4.8 101670 78
2003-01-08 07:44:47 51°13.701 2°55.724 2.9 196 -4.8 101670 78
2003-01-08 07:44:51 51°13.702 2°55.724 3.1 183 -4.8 101670 78
2003-01-08 07:44:55 51°13.703 2°55.724 2.4 176 -4.8 101670 78
2003-01-08 07:45:01 51°13.705 2°55.724 3.1 174 -4.8 101670 78
2003-01-08 07:45:07 51°13.708 2°55.723 2.4 196 -4.8 101670 78
2003-01-08 07:45:11 51°13.709 2°55.723 3.2 166 -4.8 101670 77
2003-01-08 07:45:15 51°13.711 2°55.723 4.3 156 -4.8 101670 77
2003-01-08 07:45:21 51°13.714 2°55.722 4.1 150 -4.8 101670 77
2003-01-08 07:45:27 51°13.718 2°55.72 3.7 145 -4.8 101670 77
2003-01-08 07:45:31 51°13.72 2°55.719 2.8 154 -4.8 101670 78
2003-01-08 07:45:35 51°13.722 2°55.718 2.9 151 -4.8 101670 78
2003-01-08 07:45:47 51°13.732 2°55.712 3 123 -4.8 101670 78
2003-01-08 07:45:51 51°13.735 2°55.709 2 143 -4.8 101670 78
2003-01-08 07:45:55 51°13.739 2°55.706 1.8 159 -4.8 101670 78
2003-01-08 07:46:01 51°13.745 2°55.702 2.3 174 -4.8 101670 77
2003-01-08 07:46:07 51°13.751 2°55.696 2.2 181 -4.8 101670 77
2003-01-08 07:46:12 51°13.756 2°55.692 2.5 153 -4.8 101670 77
2003-01-08 07:46:17 51°13.761 2°55.688 2.6 161 -4.8 101670 77
2003-01-08 07:46:22 51°13.766 2°55.683 3.8 148 -4.8 101670 78
2003-01-08 07:46:27 51°13.771 2°55.679 2.9 186 -4.8 101670 78
2003-01-08 07:46:32 51°13.777 2°55.675 2.9 183 -4.8 101670 78
2003-01-08 07:46:37 51°13.782 2°55.671 3.5 135 -4.8 101670 78
2003-01-08 07:46:41 51°13.787 2°55.667 2.5 163 -4.8 101680 78
2003-01-08 07:46:47 51°13.794 2°55.661 2.6 140 -4.8 101680 78
2003-01-08 07:46:51 51°13.799 2°55.658 3.3 191 -4.8 101680 78
2003-01-08 07:46:57 51°13.807 2°55.652 2.3 215 -4.8 101680 78
2003-01-08 07:47:01 51°13.812 2°55.649 2.5 187 -4.8 101680 77
2003-01-08 07:47:07 51°13.82 2°55.643 2.5 175 -4.8 101680 77
2003-01-08 07:47:11 51°13.826 2°55.639 1.7 213 -4.8 101680 77
2003-01-08 07:47:17 51°13.834 2°55.633 2.3 203 -4.8 101680 77
2003-01-08 07:47:21 51°13.84 2°55.629 3.1 211 -4.8 101680 77
2003-01-08 07:47:27 51°13.849 2°55.623 3.3 196 -4.8 101680 77
2003-01-08 07:47:31 51°13.855 2°55.619 2.5 191 -4.8 101680 77
2003-01-08 07:47:37 51°13.864 2°55.613 2.7 193 -4.8 101680 77
2003-01-08 07:47:41 51°13.87 2°55.609 3.7 172 -4.8 101680 77
2003-01-08 07:47:47 51°13.879 2°55.602 3.3 179 -4.8 101680 77
2003-01-08 07:47:51 51°13.886 2°55.597 2.9 196 -4.8 101670 77
2003-01-08 07:47:57 51°13.895 2°55.59 2.4 193 -4.8 101670 77
2003-01-08 07:48:01 51°13.902 2°55.585 3.7 195 -4.8 101670 78
2003-01-08 07:48:07 51°13.911 2°55.578 3.5 189 -4.8 101670 78
2003-01-08 07:48:12 51°13.92 2°55.572 2.5 179 -4.8 101670 77
2003-01-08 07:48:17 51°13.928 2°55.566 1.9 184 -4.8 101670 77
2003-01-08 07:48:22 51°13.937 2°55.559 2.6 187 -4.8 101670 77
2003-01-08 07:48:27 51°13.945 2°55.553 3.1 198 -4.8 101670 77
2003-01-08 07:48:32 51°13.953 2°55.546 3.2 193 -4.8 101670 77
2003-01-08 07:48:37 51°13.962 2°55.539 3.7 201 -4.8 101670 77
2003-01-08 07:48:41 51°13.969 2°55.534 3.4 199 -4.8 101670 77
2003-01-08 07:48:47 51°13.98 2°55.526 3.6 192 -4.8 101670 77
2003-01-08 07:48:51 51°13.988 2°55.521 3.2 193 -4.8 101670 77
2003-01-08 07:48:57 51°13.999 2°55.514 3.2 185 -4.8 101670 77
2003-01-08 07:49:01 51°14.007 2°55.509 3.3 186 -4.8 101670 78
2003-01-08 07:49:07 51°14.018 2°55.502 3.5 173 -4.8 101670 78
2003-01-08 07:49:11 51°14.025 2°55.496 3.5 178 -4.8 101670 78
2003-01-08 07:49:17 51°14.037 2°55.489 2.7 202 -4.8 101670 78
2003-01-08 07:49:21 51°14.044 2°55.483 3.4 188 -4.8 101670 78
2003-01-08 07:49:27 51°14.056 2°55.475 2.9 183 -4.8 101670 78
2003-01-08 07:49:31 51°14.063 2°55.469 3.1 193 -4.8 101670 78
2003-01-08 07:49:37 51°14.075 2°55.46 3.9 199 -4.8 101670 78
2003-01-08 07:49:41 51°14.082 2°55.454 3.4 184 -4.8 101670 78
2003-01-08 07:49:47 51°14.094 2°55.444 2.9 186 -4.8 101670 78
2003-01-08 07:49:51 51°14.102 2°55.438 2.5 187 -4.8 101670 78
2003-01-08 07:49:57 51°14.114 2°55.428 3.5 205 -4.8 101670 78
2003-01-08 07:50:01 51°14.121 2°55.421 3.4 190 -4.8 101670 78
2003-01-08 07:50:07 51°14.133 2°55.411 3.3 198 -4.8 101670 78
2003-01-08 07:50:13 51°14.145 2°55.4 3.4 201 -4.8 101670 78
2003-01-08 07:50:17 51°14.153 2°55.392 3.9 199 -4.8 101670 78
2003-01-08 07:50:23 51°14.165 2°55.38 3.2 183 -4.8 101670 78
2003-01-08 07:50:28 51°14.174 2°55.37 3.8 198 -4.8 101670 78
2003-01-08 07:50:31 51°14.18 2°55.364 3.2 193 -4.8 101670 78
2003-01-08 07:50:37 51°14.192 2°55.351 3.6 198 -4.8 101670 78
2003-01-08 07:50:43 51°14.203 2°55.338 2.8 202 -4.8 101670 78
2003-01-08 07:50:47 51°14.21 2°55.328 3.2 187 -4.8 101670 78
2003-01-08 07:50:53 51°14.221 2°55.314 2.8 186 -4.8 101670 78
2003-01-08 07:50:57 51°14.229 2°55.304 3.9 180 -4.8 101670 78
2003-01-08 07:51:03 51°14.239 2°55.289 3.4 190 -4.8 101670 78
2003-01-08 07:51:07 51°14.246 2°55.278 3 183 -4.8 101670 78
2003-01-08 07:51:13 51°14.256 2°55.262 3.2 175 -4.8 101670 78
2003-01-08 07:51:17 51°14.263 2°55.251 3.4 171 -4.8 101670 78
2003-01-08 07:51:23 51°14.273 2°55.234 2.3 183 -4.8 101670 78
2003-01-08 07:51:27 51°14.279 2°55.223 2.4 197 -4.8 101670 78
2003-01-08 07:51:31 51°14.285 2°55.211 2 193 -4.8 101670 78
2003-01-08 07:51:37 51°14.295 2°55.193 2.2 185 -4.8 101670 78
2003-01-08 07:51:41 51°14.301 2°55.181 1.7 194 -4.9 101670 78
2003-01-08 07:51:47 51°14.31 2°55.163 2.5 213 -4.9 101670 78
2003-01-08 07:51:51 51°14.316 2°55.15 3.7 198 -4.9 101670 78
2003-01-08 07:51:55 51°14.322 2°55.138 2.7 199 -4.9 101670 78
2003-01-08 07:52:01 51°14.33 2°55.119 3.4 174 -4.9 101670 78
2003-01-08 07:52:07 51°14.339 2°55.099 3.2 164 -4.9 101670 78
2003-01-08 07:52:11 51°14.345 2°55.086 3.3 166 -4.8 101670 79
2003-01-08 07:52:17 51°14.354 2°55.066 2.9 144 -4.8 101670 79
2003-01-08 07:52:21 51°14.36 2°55.053 3.1 134 -4.8 101670 79
2003-01-08 07:52:27 51°14.368 2°55.031 1.8 179 -4.8 101670 79
2003-01-08 07:52:32 51°14.376 2°55.013 2.6 183 -4.8 101670 79
2003-01-08 07:52:37 51°14.383 2°54.993 2.4 200 -4.8 101670 79
2003-01-08 07:52:41 51°14.39 2°54.977 2.7 198 -4.8 101670 79
2003-01-08 07:52:47 51°14.4 2°54.953 3.1 209 -4.8 101670 79
2003-01-08 07:52:51 51°14.407 2°54.937 4.2 176 -4.8 101660 79
2003-01-08 07:52:57 51°14.42 2°54.913 4.1 177 -4.8 101660 79
2003-01-08 07:53:01 51°14.429 2°54.899 4.3 183 -4.8 101670 79
2003-01-08 07:53:07 51°14.443 2°54.876 4.4 181 -4.8 101670 79
2003-01-08 07:53:11 51°14.453 2°54.862 4.2 183 -4.8 101670 79
2003-01-08 07:53:17 51°14.468 2°54.84 5.5 174 -4.8 101670 79
2003-01-08 07:53:21 51°14.478 2°54.825 5.2 175 -4.7 101670 79
2003-01-08 07:53:27 51°14.494 2°54.803 4.3 180 -4.7 101670 79
2003-01-08 07:53:31 51°14.504 2°54.788 4.5 183 -4.7 101670 79
2003-01-08 07:53:36 51°14.517 2°54.77 5.6 179 -4.7 101670 79
2003-01-08 07:53:41 51°14.53 2°54.75 4.1 174 -4.7 101670 79
2003-01-08 07:53:47 51°14.545 2°54.727 5 173 -4.7 101670 79
2003-01-08 07:53:51 51°14.555 2°54.712 4.5 174 -4.7 101670 79
2003-01-08 07:53:57 51°14.571 2°54.689 4.8 178 -4.7 101670 79
2003-01-08 07:54:01 51°14.582 2°54.675 5.6 184 -4.7 101670 79
2003-01-08 07:54:07 51°14.598 2°54.655 6 179 -4.7 101670 79
2003-01-08 07:54:11 51°14.609 2°54.642 4.9 179 -4.7 101670 79
2003-01-08 07:54:17 51°14.626 2°54.623 5.7 174 -4.7 101670 79
2003-01-08 07:54:21 51°14.638 2°54.611 5.9 178 -4.6 101670 79
2003-01-08 07:54:27 51°14.655 2°54.592 7 176 -4.6 101670 79
2003-01-08 07:54:31 51°14.667 2°54.581 6 175 -4.6 101670 79
2003-01-08 07:54:37 51°14.685 2°54.564 5.9 178 -4.6 101670 79
2003-01-08 07:54:41 51°14.697 2°54.554 5.4 176 -4.6 101670 79
2003-01-08 07:54:47 51°14.715 2°54.537 6.8 164 -4.6 101670 79
2003-01-08 07:54:51 51°14.727 2°54.527 6.4 161 -4.6 101670 79
2003-01-08 07:54:57 51°14.745 2°54.51 5.5 170 -4.6 101670 79
2003-01-08 07:55:01 51°14.757 2°54.499 6.3 181 -4.6 101670 79
2003-01-08 07:55:07 51°14.774 2°54.482 6.8 170 -4.6 101670 79
2003-01-08 07:55:11 51°14.786 2°54.471 6.2 173 -4.6 101660 80
2003-01-08 07:55:17 51°14.804 2°54.453 6.7 162 -4.6 101660 80
2003-01-08 07:55:19 51°14.81 2°54.447 6.8 175 -4.5 101670 80
2003-01-08 07:55:27 51°14.833 2°54.424 5.6 179 -4.5 101670 80
2003-01-08 07:55:31 51°14.845 2°54.413 7.3 171 -4.5 101670 80
2003-01-08 07:55:35 51°14.857 2°54.401 7 173 -4.5 101670 80
2003-01-08 07:55:41 51°14.874 2°54.384 6.7 175 -4.5 101670 80
2003-01-08 07:55:47 51°14.892 2°54.367 6.8 172 -4.5 101670 80
2003-01-08 07:55:51 51°14.904 2°54.356 7.2 171 -4.5 101670 80
2003-01-08 07:55:57 51°14.922 2°54.339 6.9 172 -4.5 101670 80
2003-01-08 07:56:01 51°14.933 2°54.327 7.3 173 -4.5 101670 79
2003-01-08 07:56:07 51°14.951 2°54.311 8.2 162 -4.5 101670 79
2003-01-08 07:56:11 51°14.963 2°54.3 6.8 169 -4.5 101670 79
2003-01-08 07:56:19 51°14.986 2°54.277 6 159 -4.5 101670 79
2003-01-08 07:56:23 51°14.998 2°54.266 6.3 165 -4.5 101670 78
2003-01-08 07:56:29 51°15.015 2°54.249 7 161 -4.5 101670 78
2003-01-08 07:56:33 51°15.027 2°54.237 5.3 157 -4.4 101670 79
2003-01-08 07:56:39 51°15.045 2°54.22 5.4 165 -4.4 101670 79
2003-01-08 07:56:43 51°15.057 2°54.209 6.2 173 -4.4 101670 79
2003-01-08 07:56:49 51°15.074 2°54.191 6.2 159 -4.4 101670 79
2003-01-08 07:56:53 51°15.086 2°54.18 6 165 -4.4 101670 78
2003-01-08 07:56:59 51°15.104 2°54.163 6.1 164 -4.4 101670 78
2003-01-08 07:57:03 51°15.116 2°54.151 4.8 155 -4.4 101680 79
2003-01-08 07:57:09 51°15.133 2°54.134 6.5 152 -4.4 101680 79
2003-01-08 07:57:13 51°15.145 2°54.122 6.1 156 -4.4 101670 79
2003-01-08 07:57:19 51°15.163 2°54.105 5.8 166 -4.4 101670 79
2003-01-08 07:57:23 51°15.174 2°54.093 7.5 174 -4.3 101670 79
2003-01-08 07:57:29 51°15.192 2°54.075 7.7 168 -4.3 101670 79
2003-01-08 07:57:33 51°15.203 2°54.063 7.1 169 -4.3 101670 80
2003-01-08 07:57:39 51°15.221 2°54.045 7.3 166 -4.3 101670 80
2003-01-08 07:57:43 51°15.233 2°54.034 6.2 157 -4.2 101670 80
2003-01-08 07:57:49 51°15.25 2°54.018 6.1 160 -4.2 101670 80
2003-01-08 07:57:53 51°15.262 2°54.007 6.8 160 -4.2 101670 80
2003-01-08 07:57:59 51°15.28 2°53.991 6.3 163 -4.2 101670 80
2003-01-08 07:58:03 51°15.292 2°53.98 6.9 168 -4.3 101670 79
2003-01-08 07:58:09 51°15.31 2°53.964 7.3 174 -4.3 101670 79
2003-01-08 07:58:13 51°15.321 2°53.953 7.6 170 -4.3 101670 78
2003-01-08 07:58:19 51°15.339 2°53.938 8.3 162 -4.3 101670 78
2003-01-08 07:58:23 51°15.351 2°53.927 7.3 157 -4.2 101670 78
2003-01-08 07:58:29 51°15.369 2°53.911 8 154 -4.2 101670 78
2003-01-08 07:58:33 51°15.381 2°53.9 7.5 158 -4.2 101680 78
2003-01-08 07:58:39 51°15.399 2°53.884 6.4 165 -4.2 101680 78
2003-01-08 07:58:43 51°15.411 2°53.873 7.8 155 -4.2 101670 78
2003-01-08 07:58:49 51°15.428 2°53.856 6 166 -4.2 101670 78
2003-01-08 07:58:53 51°15.44 2°53.845 7.7 167 -4.2 101670 78
2003-01-08 07:58:59 51°15.458 2°53.829 7.8 164 -4.2 101670 78
2003-01-08 07:59:03 51°15.469 2°53.818 6.7 160 -4.2 101670 78
2003-01-08 07:59:09 51°15.487 2°53.802 6.8 155 -4.2 101670 78
2003-01-08 07:59:13 51°15.499 2°53.79 6.4 155 -4.2 101670 78
2003-01-08 07:59:19 51°15.517 2°53.774 6.7 151 -4.2 101670 78
2003-01-08 07:59:23 51°15.529 2°53.763 6.1 157 -4.2 101670 78
2003-01-08 07:59:29 51°15.547 2°53.747 7.9 159 -4.2 101670 78
2003-01-08 07:59:31 51°15.553 2°53.742 8 157 -4.2 101670 78
2003-01-08 07:59:39 51°15.578 2°53.72 7.3 149 -4.2 101670 78
2003-01-08 07:59:43 51°15.59 2°53.708 7 148 -4.2 101670 78
2003-01-08 07:59:49 51°15.609 2°53.691 6.2 157 -4.2 101670 78
2003-01-08 07:59:53 51°15.621 2°53.679 7.6 152 -4.1 101670 78
2003-01-08 07:59:59 51°15.641 2°53.661 7 161 -4.1 101670 78
2003-01-08 08:00:03 51°15.654 2°53.649 7.3 166 -4.1 101660 78
2003-01-08 08:00:09 51°15.674 2°53.631 9.7 157 -4.1 101660 78
2003-01-08 08:00:13 51°15.687 2°53.619 8.8 152 -4.1 101660 78
2003-01-08 08:00:19 51°15.707 2°53.6 8.2 149 -4.1 101660 78
2003-01-08 08:00:23 51°15.72 2°53.588 7.5 148 -4.1 101660 79
2003-01-08 08:00:29 51°15.74 2°53.569 7.6 160 -4.1 101660 79
2003-01-08 08:00:33 51°15.754 2°53.557 7.1 153 -4.1 101660 78
2003-01-08 08:00:39 51°15.774 2°53.538 8.3 166 -4.1 101660 78
2003-01-08 08:00:43 51°15.788 2°53.526 7.5 154 -4 101660 79
2003-01-08 08:00:49 51°15.808 2°53.507 8.2 152 -4 101660 79
2003-01-08 08:00:53 51°15.822 2°53.494 9.3 160 -4 101660 79
2003-01-08 08:00:59 51°15.842 2°53.475 7 156 -4 101660 79
2003-01-08 08:01:03 51°15.856 2°53.463 5.9 155 -3.9 101660 79
2003-01-08 08:01:09 51°15.876 2°53.444 6.2 155 -3.9 101660 79
2003-01-08 08:01:14 51°15.894 2°53.428 6.6 155 -4 101660 78
2003-01-08 08:01:19 51°15.911 2°53.413 8.1 171 -4 101660 78
2003-01-08 08:01:23 51°15.924 2°53.4 7.7 172 -3.9 101660 78
2003-01-08 08:01:29 51°15.945 2°53.381 7.9 169 -3.9 101660 78
2003-01-08 08:01:33 51°15.959 2°53.368 8.3 166 -3.9 101670 77
2003-01-08 08:01:39 51°15.979 2°53.349 8 161 -3.9 101670 77
2003-01-08 08:01:43 51°15.993 2°53.337 7.2 155 -3.9 101660 78
2003-01-08 08:01:49 51°16.014 2°53.318 6.9 149 -3.9 101660 78
2003-01-08 08:01:51 51°16.02 2°53.312 6.4 157 -3.9 101660 77
2003-01-08 08:01:59 51°16.048 2°53.286 8.4 163 -3.9 101660 77
2003-01-08 08:02:03 51°16.062 2°53.274 9.7 159 -4 101660 77
2003-01-08 08:02:09 51°16.083 2°53.255 9.3 156 -4 101660 77
2003-01-08 08:02:13 51°16.097 2°53.242 8.8 159 -3.9 101660 77
2003-01-08 08:02:19 51°16.117 2°53.223 8.7 163 -3.9 101660 77
2003-01-08 08:02:23 51°16.131 2°53.211 8.8 154 -3.9 101660 78
2003-01-08 08:02:27 51°16.145 2°53.199 8.3 153 -3.9 101660 78
2003-01-08 08:02:33 51°16.166 2°53.18 9 147 -3.9 101650 78
2003-01-08 08:02:39 51°16.187 2°53.161 8 144 -3.9 101650 78
2003-01-08 08:02:43 51°16.201 2°53.149 7.7 147 -3.8 101660 78
2003-01-08 08:02:49 51°16.221 2°53.13 8.4 153 -3.8 101660 78
2003-01-08 08:02:53 51°16.235 2°53.117 8 153 -3.8 101660 78
2003-01-08 08:02:59 51°16.256 2°53.099 6.9 158 -3.8 101660 78
2003-01-08 08:03:03 51°16.269 2°53.086 7.7 165 -3.8 101660 78
2003-01-08 08:03:09 51°16.29 2°53.068 7.7 154 -3.8 101660 78
2003-01-08 08:03:14 51°16.308 2°53.052 6.7 151 -3.8 101660 78
2003-01-08 08:03:19 51°16.325 2°53.036 8.1 159 -3.8 101660 78
2003-01-08 08:03:23 51°16.338 2°53.024 8.5 155 -3.8 101670 78
2003-01-08 08:03:29 51°16.359 2°53.005 7.3 152 -3.8 101670 78
2003-01-08 08:03:33 51°16.373 2°52.992 6.4 152 -3.8 101660 77
2003-01-08 08:03:39 51°16.393 2°52.973 6.7 156 -3.8 101660 77
2003-01-08 08:03:43 51°16.407 2°52.961 8.3 159 -3.8 101670 77
2003-01-08 08:03:49 51°16.428 2°52.942 6.3 152 -3.8 101670 77
2003-01-08 08:03:51 51°16.435 2°52.936 7.9 162 -3.8 101670 76
2003-01-08 08:03:59 51°16.462 2°52.911 8.4 154 -3.8 101670 76
2003-01-08 08:04:03 51°16.476 2°52.899 7.4 146 -3.8 101670 77
2003-01-08 08:04:09 51°16.497 2°52.88 8.3 155 -3.8 101670 77
2003-01-08 08:04:13 51°16.51 2°52.867 6.6 157 -3.8 101670 77
2003-01-08 08:04:19 51°16.531 2°52.848 9.2 152 -3.8 101670 77
2003-01-08 08:04:23 51°16.545 2°52.836 8.5 151 -3.8 101670 78
2003-01-08 08:04:29 51°16.565 2°52.818 8.5 156 -3.8 101670 78
2003-01-08 08:04:33 51°16.579 2°52.805 10 171 -3.8 101660 78
2003-01-08 08:04:39 51°16.6 2°52.787 9.1 153 -3.8 101660 78
2003-01-08 08:04:43 51°16.613 2°52.774 7.9 160 -3.7 101660 79
2003-01-08 08:04:49 51°16.634 2°52.756 7.6 160 -3.7 101660 79
2003-01-08 08:04:51 51°16.641 2°52.75 8.2 159 -3.7 101660 79
2003-01-08 08:04:59 51°16.668 2°52.725 7.3 156 -3.7 101660 79
2003-01-08 08:05:03 51°16.682 2°52.713 7.1 155 -3.7 101670 79
2003-01-08 08:05:09 51°16.702 2°52.695 5.9 159 -3.7 101670 79
2003-01-08 08:05:13 51°16.716 2°52.683 8 159 -3.7 101660 78
2003-01-08 08:05:19 51°16.737 2°52.665 9.1 170 -3.7 101660 78
2003-01-08 08:05:23 51°16.75 2°52.653 7.3 159 -3.7 101660 78
2003-01-08 08:05:29 51°16.77 2°52.635 9.5 164 -3.7 101660 78
2003-01-08 08:05:33 51°16.784 2°52.623 9.6 159 -3.7 101670 78
2003-01-08 08:05:39 51°16.805 2°52.606 8.2 157 -3.7 101670 78
2003-01-08 08:05:43 51°16.818 2°52.594 8.2 155 -3.6 101660 79
2003-01-08 08:05:49 51°16.839 2°52.577 7.8 160 -3.6 101660 79
2003-01-08 08:05:51 51°16.846 2°52.571 8.3 167 -3.6 101660 79
2003-01-08 08:05:59 51°16.874 2°52.548 7.1 166 -3.6 101660 79
2003-01-08 08:06:03 51°16.887 2°52.537 8 164 -3.6 101660 78
2003-01-08 08:06:09 51°16.908 2°52.52 7.9 164 -3.6 101660 78
2003-01-08 08:06:13 51°16.922 2°52.508 10.6 166 -3.6 101670 78
2003-01-08 08:06:19 51°16.943 2°52.492 8.2 157 -3.6 101670 78
2003-01-08 08:06:23 51°16.958 2°52.481 9.9 152 -3.6 101660 78
2003-01-08 08:06:29 51°16.979 2°52.465 9.1 154 -3.6 101660 78
2003-01-08 08:06:31 51°16.986 2°52.46 8.6 154 -3.6 101660 78
2003-01-08 08:06:39 51°17.014 2°52.438 8 152 -3.6 101660 78
2003-01-08 08:06:43 51°17.028 2°52.428 8.3 157 -3.6 101660 78
2003-01-08 08:06:49 51°17.049 2°52.412 8.7 154 -3.6 101660 78
2003-01-08 08:06:53 51°17.063 2°52.401 7.7 153 -3.6 101660 78
2003-01-08 08:06:59 51°17.084 2°52.385 8.9 148 -3.6 101660 78
2003-01-08 08:07:03 51°17.098 2°52.375 8.1 149 -3.7 101660 77
2003-01-08 08:07:09 51°17.119 2°52.358 7.2 145 -3.7 101660 77
2003-01-08 08:07:11 51°17.126 2°52.353 7.8 161 -3.7 101670 77
2003-01-08 08:07:19 51°17.155 2°52.331 8.6 157 -3.7 101670 77
2003-01-08 08:07:23 51°17.169 2°52.32 8.3 163 -3.6 101660 78
2003-01-08 08:07:29 51°17.19 2°52.304 7.5 160 -3.6 101660 78
2003-01-08 08:07:33 51°17.204 2°52.293 8 168 -3.6 101670 78
2003-01-08 08:07:39 51°17.226 2°52.276 9.7 168 -3.6 101670 78
2003-01-08 08:07:43 51°17.24 2°52.265 9.7 173 -3.6 101670 78
2003-01-08 08:07:49 51°17.261 2°52.248 10.2 164 -3.6 101670 78
2003-01-08 08:07:53 51°17.275 2°52.237 10.2 166 -3.5 101670 79
2003-01-08 08:07:59 51°17.296 2°52.22 9.6 159 -3.5 101670 79
2003-01-08 08:08:03 51°17.31 2°52.209 9.3 163 -3.5 101660 80
2003-01-08 08:08:09 51°17.331 2°52.192 7.6 165 -3.5 101660 80
2003-01-08 08:08:13 51°17.345 2°52.181 8 158 -3.4 101660 80
2003-01-08 08:08:19 51°17.366 2°52.164 6.9 148 -3.4 101660 80
2003-01-08 08:08:23 51°17.38 2°52.153 6.5 147 -3.4 101650 79
2003-01-08 08:08:29 51°17.402 2°52.137 7 162 -3.4 101650 79
2003-01-08 08:08:34 51°17.419 2°52.123 8.8 161 -3.4 101670 79
2003-01-08 08:08:39 51°17.436 2°52.109 7.4 166 -3.4 101670 79
2003-01-08 08:08:43 51°17.451 2°52.098 8.4 170 -3.5 101660 77
2003-01-08 08:08:49 51°17.472 2°52.081 9.3 177 -3.5 101660 77
2003-01-08 08:08:53 51°17.485 2°52.07 8.8 167 -3.5 101670 77
2003-01-08 08:08:59 51°17.507 2°52.054 8.7 161 -3.5 101670 77
2003-01-08 08:09:03 51°17.521 2°52.043 8.6 161 -3.5 101670 78
2003-01-08 08:09:07 51°17.535 2°52.032 8.8 165 -3.5 101670 78
2003-01-08 08:09:14 51°17.559 2°52.013 7.8 155 -3.4 101670 78
2003-01-08 08:09:19 51°17.577 2°51.999 7 156 -3.4 101670 78
2003-01-08 08:09:23 51°17.591 2°51.988 7.6 152 -3.4 101660 78
2003-01-08 08:09:29 51°17.612 2°51.972 10.3 170 -3.4 101660 78
2003-01-08 08:09:34 51°17.63 2°51.958 9.5 153 -3.5 101670 77
2003-01-08 08:09:39 51°17.648 2°51.944 8.2 154 -3.5 101670 77
2003-01-08 08:09:43 51°17.662 2°51.933 7.3 165 -3.5 101670 77
2003-01-08 08:09:49 51°17.683 2°51.916 7.8 160 -3.5 101670 77
2003-01-08 08:09:53 51°17.697 2°51.905 7.4 160 -3.4 101670 79
2003-01-08 08:09:59 51°17.718 2°51.889 8.2 162 -3.4 101670 79
2003-01-08 08:10:03 51°17.732 2°51.877 8.7 153 -3.4 101660 79
2003-01-08 08:10:09 51°17.753 2°51.861 7.4 156 -3.4 101660 79
2003-01-08 08:10:14 51°17.77 2°51.848 7.9 159 -3.4 101670 79
2003-01-08 08:10:19 51°17.788 2°51.834 8.2 152 -3.4 101670 79
2003-01-08 08:10:23 51°17.802 2°51.823 7.7 150 -3.4 101670 78
2003-01-08 08:10:29 51°17.823 2°51.807 7.5 154 -3.4 101670 78
2003-01-08 08:10:33 51°17.837 2°51.796 7.2 157 -3.4 101670 78
2003-01-08 08:10:39 51°17.859 2°51.78 7.9 174 -3.4 101670 78
2003-01-08 08:10:43 51°17.873 2°51.769 9.7 163 -3.4 101670 78
2003-01-08 08:10:49 51°17.894 2°51.752 8 170 -3.4 101670 78
2003-01-08 08:10:53 51°17.908 2°51.741 9.7 172 -3.3 101670 79
2003-01-08 08:10:59 51°17.929 2°51.724 7.6 160 -3.3 101670 79
2003-01-08 08:11:03 51°17.943 2°51.713 8 154 -3.3 101670 80
2003-01-08 08:11:09 51°17.964 2°51.696 9.1 165 -3.3 101670 80
2003-01-08 08:11:13 51°17.978 2°51.685 9.1 175 -3.2 101660 81
2003-01-08 08:11:19 51°17.999 2°51.668 8.2 162 -3.2 101660 81
2003-01-08 08:11:23 51°18.013 2°51.657 8.8 159 -3.2 101670 80
2003-01-08 08:11:29 51°18.034 2°51.639 8.5 158 -3.2 101670 80
2003-01-08 08:11:33 51°18.048 2°51.628 9.3 153 -3.2 101660 79
2003-01-08 08:11:39 51°18.069 2°51.611 8.8 152 -3.2 101660 79
2003-01-08 08:11:43 51°18.084 2°51.6 8.6 155 -3.2 101670 79
2003-01-08 08:11:49 51°18.105 2°51.583 9.5 153 -3.2 101670 79
2003-01-08 08:11:53 51°18.119 2°51.572 8.3 152 -3.2 101670 79
2003-01-08 08:11:59 51°18.14 2°51.555 8.6 144 -3.2 101670 79
2003-01-08 08:12:03 51°18.155 2°51.543 8.6 159 -3.2 101670 79
2003-01-08 08:12:09 51°18.176 2°51.527 8.5 160 -3.2 101670 79
2003-01-08 08:12:13 51°18.19 2°51.515 9.1 167 -3.2 101660 79
2003-01-08 08:12:19 51°18.211 2°51.498 8.8 159 -3.2 101660 79
2003-01-08 08:12:23 51°18.226 2°51.487 8.9 159 -3.3 101670 78
2003-01-08 08:12:29 51°18.247 2°51.47 7.6 157 -3.3 101670 78
2003-01-08 08:12:33 51°18.261 2°51.458 7.8 160 -3.3 101670 78
2003-01-08 08:12:39 51°18.282 2°51.441 8.3 159 -3.3 101670 78
2003-01-08 08:12:43 51°18.296 2°51.429 7.9 163 -3.2 101670 79
2003-01-08 08:12:49 51°18.318 2°51.412 7.1 161 -3.2 101670 79
2003-01-08 08:12:53 51°18.332 2°51.4 7 162 -3.2 101670 79
2003-01-08 08:12:59 51°18.353 2°51.383 6.6 160 -3.2 101670 79
2003-01-08 08:13:03 51°18.367 2°51.372 8.1 162 -3.2 101670 79
2003-01-08 08:13:09 51°18.388 2°51.354 6.4 159 -3.2 101670 79
2003-01-08 08:13:14 51°18.406 2°51.34 6.2 161 -3.3 101670 78
2003-01-08 08:13:19 51°18.423 2°51.326 6.9 162 -3.3 101670 78
2003-01-08 08:13:23 51°18.438 2°51.314 6.8 162 -3.3 101670 77
2003-01-08 08:13:29 51°18.459 2°51.297 8.5 174 -3.3 101670 77
2003-01-08 08:13:33 51°18.473 2°51.286 8.2 173 -3.3 101670 78
2003-01-08 08:13:39 51°18.494 2°51.27 7.5 176 -3.3 101670 78
2003-01-08 08:13:43 51°18.509 2°51.259 7.5 178 -3.3 101670 78
2003-01-08 08:13:49 51°18.53 2°51.245 6.8 180 -3.3 101670 78
2003-01-08 08:13:53 51°18.545 2°51.235 7.5 178 -3.3 101670 78
2003-01-08 08:13:59 51°18.567 2°51.222 9 183 -3.3 101670 78
2003-01-08 08:14:03 51°18.582 2°51.214 8.7 172 -3.3 101660 78
2003-01-08 08:14:09 51°18.604 2°51.202 8.6 170 -3.3 101660 78
2003-01-08 08:14:14 51°18.623 2°51.193 9.9 170 -3.3 101670 78
2003-01-08 08:14:19 51°18.642 2°51.184 9.9 172 -3.3 101670 78
2003-01-08 08:14:23 51°18.656 2°51.176 9.9 171 -3.3 101660 78
2003-01-08 08:14:29 51°18.679 2°51.166 9.7 172 -3.3 101660 78
2003-01-08 08:14:33 51°18.694 2°51.159 8.6 174 -3.2 101660 79
2003-01-08 08:14:39 51°18.716 2°51.149 8 168 -3.2 101660 79
2003-01-08 08:14:43 51°18.731 2°51.142 9.7 171 -3.2 101650 79
2003-01-08 08:14:49 51°18.754 2°51.133 7.4 181 -3.2 101650 79
2003-01-08 08:14:54 51°18.772 2°51.125 9 179 -3.2 101660 79
2003-01-08 08:14:59 51°18.791 2°51.118 8.5 180 -3.2 101660 79
2003-01-08 08:15:03 51°18.806 2°51.112 10.1 179 -3.2 101660 78
2003-01-08 08:15:09 51°18.828 2°51.103 7.8 178 -3.2 101660 78
2003-01-08 08:15:13 51°18.843 2°51.097 9.3 176 -3.2 101660 78
2003-01-08 08:15:19 51°18.866 2°51.089 8.7 179 -3.2 101660 78
2003-01-08 08:15:23 51°18.881 2°51.084 9.6 177 -3.2 101650 78
2003-01-08 08:15:29 51°18.904 2°51.075 9.3 177 -3.2 101650 78
2003-01-08 08:15:34 51°18.922 2°51.069 9.3 179 -3.2 101660 79
2003-01-08 08:15:39 51°18.941 2°51.062 9.4 175 -3.2 101660 79
2003-01-08 08:15:43 51°18.956 2°51.057 9.4 174 -3.2 101650 79
2003-01-08 08:15:49 51°18.979 2°51.048 7.4 181 -3.2 101650 79
2003-01-08 08:15:53 51°18.994 2°51.042 7.4 183 -3.2 101650 78
2003-01-08 08:15:59 51°19.017 2°51.034 9.3 178 -3.2 101650 78
2003-01-08 08:16:03 51°19.032 2°51.028 8.9 176 -3.2 101660 77
2003-01-08 08:16:09 51°19.054 2°51.02 10.3 169 -3.2 101660 77
2003-01-08 08:16:13 51°19.07 2°51.014 9.4 166 -3.2 101660 77
2003-01-08 08:16:19 51°19.092 2°51.005 8.8 162 -3.2 101660 77
2003-01-08 08:16:23 51°19.107 2°50.999 9.2 166 -3.2 101650 78
2003-01-08 08:16:29 51°19.13 2°50.99 8 174 -3.2 101650 78
2003-01-08 08:16:34 51°19.149 2°50.982 9 177 -3.2 101660 79
2003-01-08 08:16:39 51°19.168 2°50.975 9 174 -3.2 101660 79
2003-01-08 08:16:43 51°19.183 2°50.969 9.5 180 -3.1 101650 79
2003-01-08 08:16:49 51°19.206 2°50.96 9.1 173 -3.1 101650 79
2003-01-08 08:16:53 51°19.221 2°50.954 7.9 177 -3.1 101660 80
2003-01-08 08:16:59 51°19.244 2°50.945 7.6 177 -3.1 101660 80
2003-01-08 08:17:03 51°19.259 2°50.939 7.5 179 -3 101660 80
2003-01-08 08:17:09 51°19.282 2°50.93 8 177 -3 101660 80
2003-01-08 08:17:14 51°19.301 2°50.922 8.6 171 -3.1 101650 79
2003-01-08 08:17:19 51°19.319 2°50.912 8.6 170 -3.1 101650 79
2003-01-08 08:17:23 51°19.334 2°50.903 8.6 172 -3.1 101660 79
2003-01-08 08:17:29 51°19.356 2°50.887 7.2 164 -3.1 101660 79
2003-01-08 08:17:33 51°19.369 2°50.875 8 166 -3 101660 79
2003-01-08 08:17:39 51°19.39 2°50.857 7.8 163 -3 101660 79
2003-01-08 08:17:43 51°19.404 2°50.844 8.9 161 -3 101660 79
2003-01-08 08:17:49 51°19.424 2°50.825 7.9 158 -3 101660 79
2003-01-08 08:17:53 51°19.438 2°50.812 7.1 155 -3.1 101660 79
2003-01-08 08:17:59 51°19.458 2°50.791 7.1 161 -3.1 101660 79
2003-01-08 08:18:03 51°19.472 2°50.778 7.5 156 -3.1 101670 78
2003-01-08 08:18:09 51°19.492 2°50.757 8.1 157 -3.1 101670 78
2003-01-08 08:18:13 51°19.505 2°50.742 5.9 158 -3.1 101660 78
2003-01-08 08:18:19 51°19.525 2°50.721 7.2 152 -3.1 101660 78
2003-01-08 08:18:23 51°19.538 2°50.706 6.9 152 -3.1 101670 78
2003-01-08 08:18:29 51°19.558 2°50.685 7.2 144 -3.1 101670 78
2003-01-08 08:18:33 51°19.571 2°50.67 8.1 147 -3.1 101670 78
2003-01-08 08:18:39 51°19.591 2°50.649 6.4 144 -3.1 101670 78
2003-01-08 08:18:43 51°19.604 2°50.635 5.9 154 -3 101660 78
2003-01-08 08:18:49 51°19.624 2°50.614 6.5 158 -3 101660 78
2003-01-08 08:18:53 51°19.638 2°50.6 9.1 166 -3 101670 78
2003-01-08 08:18:59 51°19.658 2°50.579 9.3 170 -3 101670 78
2003-01-08 08:19:03 51°19.672 2°50.565 9.8 168 -3 101670 79
2003-01-08 08:19:09 51°19.692 2°50.544 8 163 -3 101670 79
2003-01-08 08:19:14 51°19.709 2°50.526 7.8 162 -2.9 101670 79
2003-01-08 08:19:19 51°19.726 2°50.509 7 166 -2.9 101670 79
2003-01-08 08:19:23 51°19.74 2°50.495 7.8 168 -2.9 101670 79
2003-01-08 08:19:29 51°19.76 2°50.474 7.4 170 -2.9 101670 79
2003-01-08 08:19:33 51°19.773 2°50.459 6.4 162 -2.9 101670 79
2003-01-08 08:19:39 51°19.794 2°50.438 7.6 177 -2.9 101670 79
2003-01-08 08:19:43 51°19.808 2°50.424 8.2 178 -3 101670 77
2003-01-08 08:19:49 51°19.828 2°50.403 7.7 179 -3 101670 77
2003-01-08 08:19:54 51°19.845 2°50.385 7.1 180 -3 101670 77
2003-01-08 08:19:59 51°19.862 2°50.368 6.4 184 -3 101670 77
2003-01-08 08:20:03 51°19.876 2°50.353 8.2 171 -3 101670 78
2003-01-08 08:20:09 51°19.896 2°50.333 7.2 173 -3 101670 78
2003-01-08 08:20:13 51°19.91 2°50.318 6.5 172 -3 101670 78
2003-01-08 08:20:19 51°19.931 2°50.297 7.3 172 -3 101670 78
2003-01-08 08:20:23 51°19.944 2°50.283 7.1 169 -3 101670 77
2003-01-08 08:20:29 51°19.965 2°50.263 6.9 174 -3 101670 77
2003-01-08 08:20:33 51°19.979 2°50.249 7.5 160 -3 101670 77
2003-01-08 08:20:39 51°20 2°50.228 8.8 167 -3 101670 77
2003-01-08 08:20:43 51°20.013 2°50.213 7.8 168 -3 101670 77
2003-01-08 08:20:49 51°20.034 2°50.192 7.1 167 -3 101670 77
2003-01-08 08:20:53 51°20.048 2°50.178 6.7 164 -3 101670 78
2003-01-08 08:20:59 51°20.068 2°50.157 7.6 158 -3 101670 78
2003-01-08 08:21:03 51°20.082 2°50.143 8 178 -2.9 101680 78
2003-01-08 08:21:07 51°20.095 2°50.129 9.2 164 -2.9 101680 78
2003-01-08 08:21:13 51°20.116 2°50.108 9.1 167 -2.9 101680 78
2003-01-08 08:21:19 51°20.137 2°50.087 7.8 167 -2.9 101680 78
2003-01-08 08:21:23 51°20.15 2°50.073 7.3 164 -2.9 101680 78
2003-01-08 08:21:29 51°20.171 2°50.052 7 163 -2.9 101680 78
2003-01-08 08:21:34 51°20.188 2°50.034 7.4 173 -2.8 101670 79
2003-01-08 08:21:39 51°20.205 2°50.017 7.6 175 -2.8 101670 79
2003-01-08 08:21:43 51°20.219 2°50.003 6.7 157 -2.8 101670 80
2003-01-08 08:21:49 51°20.24 2°49.982 6.5 176 -2.8 101670 80
2003-01-08 08:21:53 51°20.253 2°49.968 6.9 176 -2.8 101670 79
2003-01-08 08:21:59 51°20.274 2°49.948 6.3 171 -2.8 101670 79
2003-01-08 08:22:03 51°20.288 2°49.933 6.6 170 -2.8 101680 79
2003-01-08 08:22:09 51°20.309 2°49.913 9.7 170 -2.8 101680 79
2003-01-08 08:22:14 51°20.326 2°49.895 7.7 167 -2.8 101670 79
2003-01-08 08:22:19 51°20.343 2°49.878 7.8 179 -2.8 101670 79
2003-01-08 08:22:23 51°20.357 2°49.864 8.5 170 -2.8 101680 79
2003-01-08 08:22:29 51°20.378 2°49.844 9.4 168 -2.8 101680 79
2003-01-08 08:22:33 51°20.391 2°49.83 8.7 160 -2.7 101680 78
2003-01-08 08:22:39 51°20.412 2°49.809 9.2 172 -2.7 101680 78
2003-01-08 08:22:43 51°20.425 2°49.795 9.2 161 -2.7 101670 79
2003-01-08 08:22:49 51°20.446 2°49.774 9.2 166 -2.7 101670 79
2003-01-08 08:22:53 51°20.459 2°49.759 7.8 161 -2.7 101670 80
2003-01-08 08:22:59 51°20.479 2°49.739 7.1 161 -2.7 101670 80
2003-01-08 08:23:03 51°20.493 2°49.724 6.8 162 -2.6 101670 80
2003-01-08 08:23:09 51°20.513 2°49.703 6.4 168 -2.6 101670 80
2003-01-08 08:23:19 51°20.546 2°49.669 8.3 165 -2.6 101670 79
2003-01-08 08:23:23 51°20.559 2°49.656 9.3 169 -2.7 101680 78
2003-01-08 08:23:27 51°20.573 2°49.642 8.1 162 -2.7 101680 78
2003-01-08 08:23:33 51°20.593 2°49.622 7.6 175 -2.7 101670 78
2003-01-08 08:23:39 51°20.613 2°49.601 7.4 161 -2.7 101670 78
2003-01-08 08:23:47 51°20.64 2°49.575 7.8 164 -2.7 101680 78
2003-01-08 08:23:51 51°20.654 2°49.561 9 165 -2.7 101670 79
2003-01-08 08:23:57 51°20.675 2°49.544 7.2 170 -2.7 101670 79
2003-01-08 08:24:02 51°20.692 2°49.529 8 171 -2.6 101670 79
2003-01-08 08:24:07 51°20.71 2°49.515 8.6 177 -2.6 101670 79
2003-01-08 08:24:11 51°20.725 2°49.504 6.9 179 -2.6 101670 80
2003-01-08 08:24:17 51°20.746 2°49.488 7.8 178 -2.6 101670 80
2003-01-08 08:24:21 51°20.761 2°49.477 7.9 174 -2.6 101670 80
2003-01-08 08:24:27 51°20.782 2°49.461 9.2 175 -2.6 101670 80
2003-01-08 08:24:31 51°20.797 2°49.451 9.5 176 -2.6 101670 78
2003-01-08 08:24:37 51°20.819 2°49.436 10.1 169 -2.6 101670 78
2003-01-08 08:24:42 51°20.837 2°49.423 9.5 164 -2.6 101670 78
2003-01-08 08:24:47 51°20.855 2°49.412 8.8 178 -2.6 101670 78
2003-01-08 08:24:51 51°20.87 2°49.402 9.3 173 -2.6 101660 78
2003-01-08 08:24:57 51°20.892 2°49.388 7.8 173 -2.6 101660 78
2003-01-08 08:25:01 51°20.907 2°49.379 8.7 171 -2.6 101670 78
2003-01-08 08:25:07 51°20.929 2°49.365 8.1 170 -2.6 101670 78
2003-01-08 08:25:11 51°20.944 2°49.357 8.1 171 -2.6 101660 79
2003-01-08 08:25:17 51°20.966 2°49.345 8.2 169 -2.6 101660 79
2003-01-08 08:25:22 51°20.985 2°49.335 8.8 168 -2.6 101670 78
2003-01-08 08:25:27 51°21.004 2°49.326 9 167 -2.6 101670 78
2003-01-08 08:25:31 51°21.019 2°49.318 8.6 162 -2.6 101670 79
2003-01-08 08:25:37 51°21.042 2°49.308 8.4 179 -2.6 101670 79
2003-01-08 08:25:43 51°21.064 2°49.297 9.7 176 -2.6 101670 79
2003-01-08 08:25:47 51°21.079 2°49.289 8 187 -2.6 101670 79
2003-01-08 08:25:51 51°21.094 2°49.283 8.9 180 -2.5 101670 80
2003-01-08 08:25:57 51°21.117 2°49.272 8.4 179 -2.5 101670 80
2003-01-08 08:26:01 51°21.132 2°49.266 8.6 180 -2.5 101660 80
2003-01-08 08:26:07 51°21.155 2°49.256 8.5 179 -2.5 101660 80
2003-01-08 08:26:11 51°21.17 2°49.249 9.3 178 -2.5 101660 80
2003-01-08 08:26:17 51°21.193 2°49.239 8.4 176 -2.5 101660 80
2003-01-08 08:26:23 51°21.215 2°49.229 8.7 180 -2.5 101650 78
2003-01-08 08:26:27 51°21.231 2°49.223 8.6 176 -2.5 101650 78
2003-01-08 08:26:31 51°21.246 2°49.216 8.9 171 -2.5 101650 78
2003-01-08 08:26:37 51°21.269 2°49.206 7.9 178 -2.5 101650 78
2003-01-08 08:26:43 51°21.292 2°49.197 7.7 177 -2.6 101660 77
2003-01-08 08:26:47 51°21.307 2°49.191 9.7 176 -2.6 101660 77
2003-01-08 08:26:51 51°21.323 2°49.186 10.3 176 -2.6 101670 78
2003-01-08 08:26:58 51°21.35 2°49.177 10.4 177 -2.6 101670 78
2003-01-08 08:27:01 51°21.361 2°49.174 7.8 184 -2.6 101660 78
2003-01-08 08:27:07 51°21.384 2°49.167 10.4 176 -2.6 101660 78
2003-01-08 08:27:11 51°21.4 2°49.163 9.7 176 -2.5 101660 79
2003-01-08 08:27:17 51°21.423 2°49.158 8.8 180 -2.5 101660 79
2003-01-08 08:27:22 51°21.443 2°49.153 8.9 182 -2.5 101660 79
2003-01-08 08:27:27 51°21.462 2°49.149 8.5 183 -2.5 101660 79
2003-01-08 08:27:31 51°21.478 2°49.146 9.1 180 -2.5 101660 79
2003-01-08 08:27:37 51°21.501 2°49.141 8.5 181 -2.5 101660 79
2003-01-08 08:27:43 51°21.524 2°49.136 9.4 180 -2.4 101660 79
2003-01-08 08:27:47 51°21.54 2°49.132 9.6 178 -2.4 101660 79
2003-01-08 08:27:51 51°21.556 2°49.129 7.7 181 -2.5 101650 79
2003-01-08 08:27:57 51°21.579 2°49.124 9.3 179 -2.5 101650 79
2003-01-08 08:28:01 51°21.595 2°49.121 10.6 180 -2.5 101650 78
2003-01-08 08:28:07 51°21.618 2°49.116 9.7 176 -2.5 101650 78
2003-01-08 08:28:11 51°21.634 2°49.113 8.5 184 -2.5 101660 79
2003-01-08 08:28:17 51°21.657 2°49.108 8.2 191 -2.5 101660 79
2003-01-08 08:28:22 51°21.677 2°49.105 7.7 185 -2.4 101660 79
2003-01-08 08:28:27 51°21.696 2°49.101 8.5 181 -2.4 101660 79
2003-01-08 08:28:31 51°21.712 2°49.098 9.6 177 -2.4 101660 79
2003-01-08 08:28:37 51°21.736 2°49.093 9.4 174 -2.4 101660 79
2003-01-08 08:28:43 51°21.759 2°49.088 10.6 166 -2.4 101650 79
2003-01-08 08:28:47 51°21.775 2°49.085 9.7 172 -2.4 101650 79
2003-01-08 08:28:51 51°21.79 2°49.081 10.2 176 -2.4 101650 79
2003-01-08 08:28:58 51°21.818 2°49.076 11.4 177 -2.4 101650 79
2003-01-08 08:29:03 51°21.837 2°49.071 9.6 179 -2.4 101660 79
2003-01-08 08:29:07 51°21.853 2°49.068 10.7 176 -2.4 101660 79
2003-01-08 08:29:11 51°21.869 2°49.065 11.9 170 -2.3 101660 79
2003-01-08 08:29:19 51°21.9 2°49.059 10.4 166 -2.3 101660 79
2003-01-08 08:29:23 51°21.916 2°49.056 10.7 169 -2.3 101660 80
2003-01-08 08:29:27 51°21.932 2°49.053 9 181 -2.3 101660 80
2003-01-08 08:29:33 51°21.956 2°49.049 11.4 172 -2.3 101650 80
2003-01-08 08:29:39 51°21.979 2°49.047 10.3 179 -2.3 101650 80
2003-01-08 08:29:47 51°22.011 2°49.044 11.6 177 -2.3 101660 80
2003-01-08 08:29:51 51°22.026 2°49.042 11 175 -2.3 101650 79
2003-01-08 08:29:57 51°22.05 2°49.04 11.7 172 -2.3 101650 79
2003-01-08 08:30:01 51°22.066 2°49.039 9.8 185 -2.3 101650 79
2003-01-08 08:30:07 51°22.089 2°49.037 12.3 173 -2.3 101650 79
2003-01-08 08:30:11 51°22.105 2°49.037 9.9 181 -2.3 101660 79
2003-01-08 08:30:17 51°22.129 2°49.035 11.6 178 -2.3 101660 79
2003-01-08 08:30:22 51°22.149 2°49.034 9 185 -2.2 101650 80
2003-01-08 08:30:27 51°22.168 2°49.032 8.9 185 -2.2 101650 80
2003-01-08 08:30:31 51°22.184 2°49.031 8.7 186 -2.2 101650 80
2003-01-08 08:30:37 51°22.208 2°49.031 10.1 193 -2.2 101650 80
2003-01-08 08:30:43 51°22.231 2°49.03 9.2 182 -2.2 101650 79
2003-01-08 08:30:47 51°22.247 2°49.029 9.8 181 -2.2 101650 79
2003-01-08 08:30:51 51°22.263 2°49.029 8.7 186 -2.2 101660 78
2003-01-08 08:30:58 51°22.29 2°49.027 8.5 183 -2.2 101660 78
2003-01-08 08:31:01 51°22.302 2°49.026 9.7 184 -2.2 101650 78
2003-01-08 08:31:07 51°22.325 2°49.024 8.5 183 -2.2 101650 78
2003-01-08 08:31:11 51°22.341 2°49.023 11.9 178 -2.2 101650 77
2003-01-08 08:31:17 51°22.365 2°49.022 10.6 181 -2.2 101650 77
2003-01-08 08:31:22 51°22.384 2°49.02 12.6 175 -2.3 101650 77
2003-01-08 08:31:27 51°22.404 2°49.019 11.4 174 -2.3 101650 77
2003-01-08 08:31:31 51°22.42 2°49.017 10.6 175 -2.2 101650 77
2003-01-08 08:31:37 51°22.443 2°49.016 12.8 175 -2.2 101650 77
2003-01-08 08:31:43 51°22.467 2°49.014 11.2 177 -2.2 101650 78
2003-01-08 08:31:47 51°22.483 2°49.013 12.6 174 -2.2 101650 78
2003-01-08 08:31:51 51°22.499 2°49.012 10.5 176 -2.2 101640 78
2003-01-08 08:31:58 51°22.526 2°49.011 12.1 179 -2.2 101640 78
2003-01-08 08:32:01 51°22.538 2°49.01 11.3 179 -2.2 101640 78
2003-01-08 08:32:07 51°22.561 2°49.009 10.5 177 -2.2 101640 78
2003-01-08 08:32:11 51°22.577 2°49.008 9.4 183 -2.2 101650 77
2003-01-08 08:32:17 51°22.601 2°49.006 9.7 176 -2.2 101650 77
2003-01-08 08:32:22 51°22.621 2°49.005 10.2 182 -2.1 101650 78
2003-01-08 08:32:27 51°22.64 2°49.004 10.3 181 -2.1 101650 78
2003-01-08 08:32:31 51°22.656 2°49.003 10.2 179 -2.1 101650 78
2003-01-08 08:32:37 51°22.679 2°49.002 10.3 176 -2.1 101650 78
2003-01-08 08:32:43 51°22.703 2°49.001 9.4 174 -2 101660 79
2003-01-08 08:32:47 51°22.718 2°49 10.1 179 -2 101660 79
2003-01-08 08:32:51 51°22.734 2°48.999 11.5 173 -2 101650 78
2003-01-08 08:32:58 51°22.761 2°48.997 10.7 175 -2 101650 78
2003-01-08 08:33:01 51°22.773 2°48.997 9.8 181 -2 101650 78
2003-01-08 08:33:07 51°22.797 2°48.995 9.7 179 -2 101650 78
2003-01-08 08:33:11 51°22.812 2°48.995 10.2 177 -2 101650 79
2003-01-08 08:33:17 51°22.836 2°48.993 10.6 180 -2 101650 79
2003-01-08 08:33:22 51°22.856 2°48.993 11.1 177 -1.9 101650 79
2003-01-08 08:33:27 51°22.875 2°48.991 11.4 171 -1.9 101650 79
2003-01-08 08:33:31 51°22.891 2°48.99 10.6 177 -1.9 101660 78
2003-01-08 08:33:37 51°22.914 2°48.988 13.8 173 -1.9 101660 78
2003-01-08 08:33:43 51°22.938 2°48.987 13.2 170 -1.9 101660 78
2003-01-08 08:33:47 51°22.953 2°48.984 13.2 167 -1.9 101660 78
2003-01-08 08:33:51 51°22.969 2°48.983 10.6 178 -2 101650 76
2003-01-08 08:33:58 51°22.996 2°48.98 11.3 179 -2 101650 76
2003-01-08 08:34:03 51°23.016 2°48.979 12.5 176 -2 101650 76
2003-01-08 08:34:07 51°23.032 2°48.977 12 182 -2 101650 76
2003-01-08 08:34:11 51°23.047 2°48.975 11.1 180 -2 101650 76
2003-01-08 08:34:19 51°23.079 2°48.972 11.4 188 -2 101650 76
2003-01-08 08:34:23 51°23.094 2°48.972 10.2 190 -2 101650 75
2003-01-08 08:34:27 51°23.11 2°48.97 11.6 191 -2 101650 75
2003-01-08 08:34:33 51°23.133 2°48.968 11.8 194 -2 101650 75
2003-01-08 08:34:39 51°23.156 2°48.965 10.3 188 -2 101650 75
2003-01-08 08:34:47 51°23.187 2°48.962 10.3 191 -2 101650 74
2003-01-08 08:34:51 51°23.202 2°48.959 10.8 190 -1.9 101660 74
2003-01-08 08:34:57 51°23.226 2°48.957 11.1 193 -1.9 101660 74
2003-01-08 08:35:01 51°23.241 2°48.955 10.5 189 -1.9 101650 75
2003-01-08 08:35:07 51°23.265 2°48.953 9.6 188 -1.9 101650 75
2003-01-08 08:35:11 51°23.28 2°48.95 10.2 185 -1.9 101650 74
2003-01-08 08:35:17 51°23.303 2°48.948 11.3 194 -1.9 101650 74
2003-01-08 08:35:21 51°23.319 2°48.947 11.2 193 -1.9 101660 73
2003-01-08 08:35:27 51°23.342 2°48.945 10.9 184 -1.9 101660 73
2003-01-08 08:35:31 51°23.358 2°48.943 10.6 185 -1.9 101650 72
2003-01-08 08:35:37 51°23.381 2°48.941 10.5 189 -1.9 101650 72
2003-01-08 08:35:43 51°23.404 2°48.939 9.3 189 -1.8 101650 73
2003-01-08 08:35:47 51°23.42 2°48.938 8.8 185 -1.8 101650 73
2003-01-08 08:35:51 51°23.435 2°48.936 9.5 178 -1.8 101660 73
2003-01-08 08:35:57 51°23.458 2°48.934 9.5 178 -1.8 101660 73
2003-01-08 08:36:02 51°23.478 2°48.933 9.8 187 -1.8 101660 72
2003-01-08 08:36:07 51°23.497 2°48.93 14.3 178 -1.8 101660 72
2003-01-08 08:36:11 51°23.513 2°48.929 14 176 -1.9 101660 72
2003-01-08 08:36:17 51°23.536 2°48.926 13.5 172 -1.9 101660 72
2003-01-08 08:36:21 51°23.552 2°48.926 11.6 176 -1.8 101660 72
2003-01-08 08:36:27 51°23.575 2°48.923 11.7 179 -1.8 101660 72
2003-01-08 08:36:31 51°23.59 2°48.921 12 176 -1.8 101650 72
2003-01-08 08:36:37 51°23.613 2°48.918 11.5 180 -1.8 101650 72
2003-01-08 08:36:42 51°23.633 2°48.917 10.8 187 -1.8 101650 73
2003-01-08 08:36:47 51°23.652 2°48.914 10.2 182 -1.8 101650 73
2003-01-08 08:36:51 51°23.668 2°48.913 10.3 186 -1.8 101640 70
2003-01-08 08:36:57 51°23.691 2°48.911 11.4 183 -1.8 101640 70
2003-01-08 08:37:01 51°23.706 2°48.91 9.1 188 -1.8 101660 70
2003-01-08 08:37:07 51°23.729 2°48.907 11 180 -1.8 101660 70
2003-01-08 08:37:11 51°23.745 2°48.906 11.3 177 -1.9 101660 68
2003-01-08 08:37:17 51°23.768 2°48.904 9.6 180 -1.9 101660 68
2003-01-08 08:37:20 51°23.78 2°48.903 10.8 179 -1.9 101660 67
2003-01-08 08:37:27 51°23.807 2°48.9 11.9 181 -1.9 101660 67
2003-01-08 08:37:31 51°23.822 2°48.899 10.3 184 -1.9 101660 68
2003-01-08 08:37:37 51°23.845 2°48.896 10.5 185 -1.9 101660 68
2003-01-08 08:37:41 51°23.861 2°48.894 10.6 185 -1.9 101650 68
2003-01-08 08:37:47 51°23.884 2°48.892 10.2 186 -1.9 101650 68
2003-01-08 08:37:51 51°23.899 2°48.89 10.2 188 -1.9 101660 68
2003-01-08 08:37:58 51°23.926 2°48.887 10.9 187 -1.9 101660 68
2003-01-08 08:38:03 51°23.946 2°48.885 10.1 182 -1.8 101660 69
2003-01-08 08:38:07 51°23.961 2°48.885 8.8 183 -1.8 101660 69
2003-01-08 08:38:11 51°23.976 2°48.883 10.2 187 -1.8 101660 68
2003-01-08 08:38:17 51°23.999 2°48.882 9.4 184 -1.8 101660 68
2003-01-08 08:38:22 51°24.018 2°48.88 9.9 186 -1.9 101660 67
2003-01-08 08:38:27 51°24.037 2°48.878 9.6 187 -1.9 101660 67
2003-01-08 08:38:31 51°24.053 2°48.877 10.3 187 -1.9 101660 67
2003-01-08 08:38:37 51°24.076 2°48.875 9.2 188 -1.9 101660 67
2003-01-08 08:38:43 51°24.099 2°48.872 9.8 185 -1.9 101660 67
2003-01-08 08:38:47 51°24.114 2°48.871 9.2 183 -1.9 101660 67
2003-01-08 08:38:51 51°24.129 2°48.869 9.2 183 -1.9 101660 67
2003-01-08 08:38:58 51°24.155 2°48.866 9.3 181 -1.9 101660 67
2003-01-08 08:39:01 51°24.166 2°48.864 9.9 188 -1.9 101660 68
2003-01-08 08:39:07 51°24.189 2°48.861 9.6 184 -1.9 101660 68
2003-01-08 08:39:11 51°24.204 2°48.858 12.7 190 -1.9 101660 68
2003-01-08 08:39:19 51°24.236 2°48.853 11.3 184 -1.9 101660 68
2003-01-08 08:39:23 51°24.251 2°48.85 11.4 183 -1.9 101670 69
2003-01-08 08:39:27 51°24.266 2°48.847 11.3 183 -1.9 101670 69
2003-01-08 08:39:33 51°24.289 2°48.843 10.5 184 -1.9 101660 69
2003-01-08 08:39:39 51°24.312 2°48.838 11 179 -1.9 101660 69
2003-01-08 08:39:47 51°24.343 2°48.833 12 180 -1.9 101660 67
2003-01-08 08:39:51 51°24.358 2°48.83 10.6 180 -1.9 101640 67
2003-01-08 08:39:57 51°24.381 2°48.826 11.7 176 -1.9 101640 67
2003-01-08 08:40:01 51°24.396 2°48.824 10.5 176 -2 101650 66
2003-01-08 08:40:07 51°24.419 2°48.82 12.2 175 -2 101650 66
2003-01-08 08:40:11 51°24.435 2°48.817 11 174 -2 101670 65
2003-01-08 08:40:17 51°24.458 2°48.814 10.6 175 -2 101670 65
2003-01-08 08:40:21 51°24.473 2°48.811 13.2 172 -1.9 101670 66
2003-01-08 08:40:27 51°24.495 2°48.809 11.6 175 -1.9 101670 66
2003-01-08 08:40:31 51°24.511 2°48.806 12.2 176 -2 101660 67
2003-01-08 08:40:37 51°24.534 2°48.802 11.5 174 -2 101660 67
2003-01-08 08:40:41 51°24.55 2°48.799 10.6 177 -1.9 101650 68
2003-01-08 08:40:47 51°24.573 2°48.795 10.6 179 -1.9 101650 68
2003-01-08 08:40:51 51°24.589 2°48.792 12.6 179 -1.9 101650 69
2003-01-08 08:40:57 51°24.612 2°48.788 12.6 179 -1.9 101650 69
2003-01-08 08:41:02 51°24.632 2°48.785 11.4 180 -1.9 101650 70
2003-01-08 08:41:07 51°24.651 2°48.781 11.7 178 -1.9 101650 70
2003-01-08 08:41:11 51°24.667 2°48.779 12.9 175 -1.9 101640 68
2003-01-08 08:41:17 51°24.69 2°48.775 11 181 -1.9 101640 68
2003-01-08 08:41:23 51°24.713 2°48.77 11.4 179 -1.9 101640 66
2003-01-08 08:41:27 51°24.729 2°48.768 11.1 179 -1.9 101640 66
2003-01-08 08:41:31 51°24.745 2°48.765 11.5 178 -1.9 101640 64
2003-01-08 08:41:37 51°24.768 2°48.762 11.8 176 -1.9 101640 64
2003-01-08 08:41:41 51°24.783 2°48.758 11.1 175 -1.9 101650 65
2003-01-08 08:41:47 51°24.806 2°48.755 10.8 180 -1.9 101650 65
2003-01-08 08:41:51 51°24.822 2°48.752 11.9 180 -1.9 101660 66
2003-01-08 08:41:57 51°24.845 2°48.748 11.7 180 -1.9 101660 66
2003-01-08 08:42:01 51°24.86 2°48.745 12.1 177 -1.9 101650 67
2003-01-08 08:42:07 51°24.883 2°48.742 10.7 174 -1.9 101650 67
2003-01-08 08:42:11 51°24.899 2°48.739 10.1 182 -1.9 101660 67
2003-01-08 08:42:17 51°24.922 2°48.735 10.7 181 -1.9 101660 67
2003-01-08 08:42:22 51°24.941 2°48.733 12.5 174 -1.9 101660 65
2003-01-08 08:42:27 51°24.961 2°48.729 11.5 173 -1.9 101660 65
2003-01-08 08:42:31 51°24.976 2°48.726 11.4 174 -1.9 101660 66
2003-01-08 08:42:37 51°24.999 2°48.721 10.1 177 -1.9 101660 66
2003-01-08 08:42:41 51°25.015 2°48.719 8.9 178 -2 101660 65
2003-01-08 08:42:47 51°25.038 2°48.713 10.7 171 -2 101660 65
2003-01-08 08:42:52 51°25.057 2°48.71 10.1 174 -2 101660 65
2003-01-08 08:42:57 51°25.076 2°48.705 10.1 174 -2 101660 65
2003-01-08 08:43:01 51°25.092 2°48.701 12.8 173 -1.9 101660 67
2003-01-08 08:43:07 51°25.115 2°48.696 12.1 168 -1.9 101660 67
2003-01-08 08:43:11 51°25.13 2°48.692 12.9 167 -1.9 101660 67
2003-01-08 08:43:17 51°25.153 2°48.687 12.6 172 -1.9 101660 67
2003-01-08 08:43:21 51°25.169 2°48.683 13.4 175 -1.9 101660 69
2003-01-08 08:43:27 51°25.192 2°48.679 11.2 186 -1.9 101660 69
2003-01-08 08:43:31 51°25.207 2°48.675 10 185 -1.9 101650 68
2003-01-08 08:43:37 51°25.231 2°48.67 10.9 182 -1.9 101650 68
2003-01-08 08:43:41 51°25.246 2°48.666 10.8 182 -1.8 101650 70
2003-01-08 08:43:47 51°25.269 2°48.661 11.3 180 -1.8 101650 70
2003-01-08 08:43:51 51°25.284 2°48.657 9.8 183 -1.7 101660 72
2003-01-08 08:43:57 51°25.308 2°48.651 10.6 181 -1.7 101660 72
2003-01-08 08:44:02 51°25.327 2°48.647 10.5 182 -1.7 101660 72
2003-01-08 08:44:07 51°25.346 2°48.642 9.9 182 -1.7 101660 72
2003-01-08 08:44:11 51°25.361 2°48.638 10.3 187 -1.7 101650 71
2003-01-08 08:44:18 51°25.388 2°48.632 9.3 186 -1.7 101650 71
2003-01-08 08:44:22 51°25.403 2°48.629 9.7 186 -1.7 101660 70
2003-01-08 08:44:27 51°25.422 2°48.624 9.9 185 -1.7 101660 70
2003-01-08 08:44:31 51°25.438 2°48.621 8.9 184 -1.8 101650 69
2003-01-08 08:44:37 51°25.461 2°48.614 11.7 174 -1.8 101650 69
2003-01-08 08:44:43 51°25.484 2°48.609 9.3 185 -1.8 101660 69
2003-01-08 08:44:47 51°25.499 2°48.605 9.9 180 -1.8 101660 69
2003-01-08 08:44:51 51°25.515 2°48.602 10.1 181 -1.8 101660 70
2003-01-08 08:44:57 51°25.538 2°48.597 10.1 181 -1.8 101660 70
2003-01-08 08:45:02 51°25.557 2°48.593 9.3 186 -1.8 101660 70
2003-01-08 08:45:07 51°25.576 2°48.588 11.2 178 -1.8 101660 70
2003-01-08 08:45:11 51°25.592 2°48.584 10 180 -1.8 101670 71
2003-01-08 08:45:17 51°25.615 2°48.579 11.5 175 -1.8 101670 71
2003-01-08 08:45:21 51°25.63 2°48.575 11.4 170 -1.8 101670 71
2003-01-08 08:45:27 51°25.654 2°48.57 10.7 178 -1.8 101670 71
2003-01-08 08:45:31 51°25.669 2°48.566 11.3 172 -1.9 101660 71
2003-01-08 08:45:37 51°25.692 2°48.56 11.1 172 -1.9 101660 71
2003-01-08 08:45:41 51°25.707 2°48.556 12.7 169 -1.9 101670 71
2003-01-08 08:45:47 51°25.73 2°48.551 9.7 176 -1.9 101670 71
2003-01-08 08:45:51 51°25.745 2°48.546 12.5 174 -1.9 101660 71
2003-01-08 08:45:57 51°25.769 2°48.541 11.2 178 -1.9 101660 71
2003-01-08 08:46:01 51°25.784 2°48.536 12.3 176 -1.9 101660 71
2003-01-08 08:46:07 51°25.807 2°48.53 13.6 175 -1.9 101660 71
2003-01-08 08:46:11 51°25.823 2°48.526 12.4 174 -1.8 101670 73
2003-01-08 08:46:17 51°25.846 2°48.52 12 179 -1.8 101670 73
2003-01-08 08:46:20 51°25.857 2°48.517 11.1 174 -1.8 101660 72
2003-01-08 08:46:27 51°25.884 2°48.511 11.8 178 -1.8 101660 72
2003-01-08 08:46:31 51°25.9 2°48.507 10 176 -1.9 101650 70
2003-01-08 08:46:37 51°25.923 2°48.502 13.4 180 -1.9 101650 70
2003-01-08 08:46:41 51°25.939 2°48.499 10.6 180 -1.9 101660 69
2003-01-08 08:46:47 51°25.962 2°48.493 11.8 180 -1.9 101660 69
2003-01-08 08:46:52 51°25.981 2°48.489 12.1 176 -1.9 101650 70
2003-01-08 08:46:57 51°26.001 2°48.485 12.1 176 -1.9 101650 70
2003-01-08 08:47:01 51°26.017 2°48.482 10 174 -1.9 101660 70
2003-01-08 08:47:07 51°26.04 2°48.477 10 176 -1.9 101660 70
2003-01-08 08:47:11 51°26.055 2°48.474 11.1 177 -1.9 101670 69
2003-01-08 08:47:17 51°26.079 2°48.468 10.2 176 -1.9 101670 69
2003-01-08 08:47:22 51°26.098 2°48.465 10.3 178 -1.9 101660 69
2003-01-08 08:47:27 51°26.118 2°48.46 12.1 173 -1.9 101660 69
2003-01-08 08:47:31 51°26.133 2°48.456 11.8 171 -1.9 101670 70
2003-01-08 08:47:37 51°26.156 2°48.451 12.4 169 -1.9 101670 70
2003-01-08 08:47:41 51°26.172 2°48.447 9.4 179 -1.9 101660 70
2003-01-08 08:47:47 51°26.195 2°48.442 10.6 181 -1.9 101660 70
2003-01-08 08:47:51 51°26.211 2°48.438 10.8 180 -2 101660 68
2003-01-08 08:47:57 51°26.234 2°48.434 10.8 176 -2 101660 68
2003-01-08 08:48:02 51°26.253 2°48.428 11.7 178 -1.9 101670 71
2003-01-08 08:48:07 51°26.273 2°48.425 8.8 183 -1.9 101670 71
2003-01-08 08:48:11 51°26.289 2°48.421 10.1 180 -1.9 101670 71
2003-01-08 08:48:17 51°26.312 2°48.416 11 182 -1.9 101670 71
2003-01-08 08:48:21 51°26.327 2°48.413 9.7 179 -1.9 101670 72
2003-01-08 08:48:27 51°26.351 2°48.408 10.5 178 -1.9 101670 72
2003-01-08 08:48:31 51°26.366 2°48.405 8.8 186 -1.8 101660 72
2003-01-08 08:48:37 51°26.39 2°48.401 9.2 182 -1.8 101660 72
2003-01-08 08:48:43 51°26.413 2°48.396 8.8 183 -1.8 101670 72
2003-01-08 08:48:47 51°26.429 2°48.393 9.7 184 -1.8 101670 72
2003-01-08 08:48:51 51°26.444 2°48.39 13 176 -1.8 101660 71
2003-01-08 08:48:58 51°26.472 2°48.384 13 176 -1.8 101660 71
2003-01-08 08:49:01 51°26.484 2°48.381 10.8 172 -1.9 101670 70
2003-01-08 08:49:07 51°26.507 2°48.376 10.6 171 -1.9 101670 70
2003-01-08 08:49:11 51°26.523 2°48.373 10.3 172 -1.8 101660 71
2003-01-08 08:49:17 51°26.547 2°48.368 10.3 173 -1.8 101660 71
2003-01-08 08:49:23 51°26.57 2°48.363 10.3 173 -1.9 101660 70
2003-01-08 08:49:27 51°26.586 2°48.36 9.2 187 -1.9 101660 70
2003-01-08 08:49:31 51°26.601 2°48.356 12.9 177 -1.8 101670 72
2003-01-08 08:49:37 51°26.625 2°48.352 11.1 177 -1.8 101670 72
2003-01-08 08:49:43 51°26.648 2°48.346 10.4 179 -1.8 101660 72
2003-01-08 08:49:47 51°26.664 2°48.343 9.2 188 -1.8 101660 72
2003-01-08 08:49:51 51°26.68 2°48.34 10 184 -1.8 101670 72
2003-01-08 08:49:58 51°26.707 2°48.335 10.9 178 -1.8 101670 72
2003-01-08 08:50:01 51°26.719 2°48.332 11.2 179 -1.7 101650 73
2003-01-08 08:50:07 51°26.743 2°48.327 10.2 179 -1.7 101650 73
2003-01-08 08:50:11 51°26.758 2°48.325 9 179 -1.7 101660 73
2003-01-08 08:50:17 51°26.782 2°48.32 9.8 182 -1.7 101660 73
2003-01-08 08:50:21 51°26.798 2°48.316 8.9 183 -1.7 101660 72
2003-01-08 08:50:27 51°26.821 2°48.311 11.3 183 -1.7 101660 72
2003-01-08 08:50:31 51°26.837 2°48.308 11.1 178 -1.7 101670 70
2003-01-08 08:50:37 51°26.86 2°48.303 12.1 173 -1.7 101670 70
2003-01-08 08:50:41 51°26.876 2°48.3 11.6 179 -1.7 101660 71
2003-01-08 08:50:47 51°26.899 2°48.295 11.6 178 -1.7 101660 71
2003-01-08 08:50:51 51°26.915 2°48.291 9.9 180 -1.7 101660 71
2003-01-08 08:50:58 51°26.942 2°48.283 9.9 180 -1.7 101660 71
2003-01-08 08:51:03 51°26.961 2°48.276 11 170 -1.7 101650 71
2003-01-08 08:51:07 51°26.976 2°48.27 10.1 164 -1.7 101650 71
2003-01-08 08:51:11 51°26.992 2°48.264 10 172 -1.7 101660 71
2003-01-08 08:51:17 51°27.015 2°48.253 10.4 174 -1.7 101660 71
2003-01-08 08:51:23 51°27.038 2°48.244 10 174 -1.7 101660 71
2003-01-08 08:51:27 51°27.053 2°48.236 10.2 174 -1.7 101660 71
2003-01-08 08:51:31 51°27.068 2°48.23 12.2 173 -1.8 101660 71
2003-01-08 08:51:37 51°27.091 2°48.218 11.2 177 -1.8 101660 71
2003-01-08 08:51:42 51°27.109 2°48.207 12.2 175 -1.7 101660 72
2003-01-08 08:51:47 51°27.129 2°48.198 12.3 175 -1.7 101660 72
2003-01-08 08:51:51 51°27.144 2°48.189 11.8 173 -1.7 101660 73
2003-01-08 08:51:58 51°27.17 2°48.176 11.8 173 -1.7 101660 73
2003-01-08 08:52:03 51°27.189 2°48.166 11 175 -1.6 101670 73
2003-01-08 08:52:07 51°27.204 2°48.159 11.6 172 -1.6 101670 73
2003-01-08 08:52:11 51°27.219 2°48.15 10.6 172 -1.7 101670 72
2003-01-08 08:52:17 51°27.241 2°48.14 9.6 177 -1.7 101670 72
2003-01-08 08:52:22 51°27.26 2°48.128 10 170 -1.7 101660 71
2003-01-08 08:52:27 51°27.279 2°48.121 9.9 173 -1.7 101660 71
2003-01-08 08:52:31 51°27.294 2°48.111 11.7 174 -1.7 101660 71
2003-01-08 08:52:37 51°27.316 2°48.102 11.8 167 -1.7 101660 71
2003-01-08 08:52:43 51°27.339 2°48.088 12 166 -1.8 101660 71
2003-01-08 08:52:47 51°27.354 2°48.082 9 178 -1.8 101660 71
2003-01-08 08:52:51 51°27.369 2°48.072 12.6 168 -1.7 101670 72
2003-01-08 08:52:58 51°27.396 2°48.06 10.1 169 -1.7 101670 72
2003-01-08 08:53:01 51°27.407 2°48.053 9.5 163 -1.7 101670 73
2003-01-08 08:53:07 51°27.43 2°48.042 10.7 171 -1.7 101670 73
2003-01-08 08:53:11 51°27.445 2°48.034 10.6 159 -1.7 101670 72
2003-01-08 08:53:17 51°27.468 2°48.023 9 158 -1.7 101670 72
2003-01-08 08:53:22 51°27.487 2°48.013 9.2 154 -1.7 101670 73
2003-01-08 08:53:27 51°27.506 2°48.004 9.6 163 -1.7 101670 73
2003-01-08 08:53:31 51°27.521 2°47.995 10.8 171 -1.7 101670 73
2003-01-08 08:53:37 51°27.544 2°47.985 7.7 183 -1.7 101670 73
2003-01-08 08:53:43 51°27.566 2°47.972 12.6 167 -1.7 101660 74
2003-01-08 08:53:47 51°27.582 2°47.966 9.8 174 -1.7 101660 74
2003-01-08 08:53:51 51°27.596 2°47.955 13.1 175 -1.7 101670 74
2003-01-08 08:53:57 51°27.619 2°47.945 10.9 176 -1.7 101670 74
2003-01-08 08:54:03 51°27.641 2°47.931 11.8 172 -1.6 101680 75
2003-01-08 08:54:07 51°27.656 2°47.925 10.8 166 -1.6 101680 75
2003-01-08 08:54:11 51°27.671 2°47.916 12 165 -1.6 101660 74
2003-01-08 08:54:17 51°27.694 2°47.905 7.7 179 -1.6 101660 74
2003-01-08 08:54:20 51°27.705 2°47.898 12.3 172 -1.6 101660 73
2003-01-08 08:54:27 51°27.731 2°47.884 9.7 166 -1.6 101660 73
2003-01-08 08:54:31 51°27.746 2°47.875 12.2 162 -1.7 101660 72
2003-01-08 08:54:37 51°27.768 2°47.864 9.8 162 -1.7 101660 72
2003-01-08 08:54:41 51°27.783 2°47.855 11 171 -1.6 101660 73
2003-01-08 08:54:47 51°27.806 2°47.844 11.1 171 -1.6 101660 73
2003-01-08 08:54:51 51°27.821 2°47.836 10.7 177 -1.6 101670 74
2003-01-08 08:54:58 51°27.847 2°47.823 10.7 177 -1.6 101670 74
2003-01-08 08:55:03 51°27.866 2°47.812 11.4 168 -1.6 101670 75
2003-01-08 08:55:07 51°27.881 2°47.805 10.3 164 -1.6 101670 75
2003-01-08 08:55:11 51°27.896 2°47.797 10.4 171 -1.5 101660 75
2003-01-08 08:55:17 51°27.918 2°47.785 10.1 171 -1.5 101660 75
2003-01-08 08:55:22 51°27.937 2°47.773 9.8 169 -1.5 101680 74
2003-01-08 08:55:27 51°27.957 2°47.764 9.5 172 -1.5 101680 74
2003-01-08 08:55:31 51°27.971 2°47.753 11.1 174 -1.5 101680 75
2003-01-08 08:55:37 51°27.994 2°47.743 10.3 169 -1.5 101680 75
2003-01-08 08:55:43 51°28.017 2°47.73 11.2 176 -1.5 101660 75
2003-01-08 08:55:47 51°28.031 2°47.723 10.8 172 -1.5 101660 75
2003-01-08 08:55:51 51°28.046 2°47.715 10.9 170 -1.4 101670 76
2003-01-08 08:55:57 51°28.068 2°47.703 9.3 180 -1.4 101670 76
2003-01-08 08:56:02 51°28.087 2°47.693 11.3 173 -1.4 101660 75
2003-01-08 08:56:07 51°28.106 2°47.683 11.6 173 -1.4 101660 75
2003-01-08 08:56:11 51°28.12 2°47.676 12.6 170 -1.5 101670 74
2003-01-08 08:56:17 51°28.142 2°47.664 14.4 170 -1.5 101670 74
2003-01-08 08:56:22 51°28.161 2°47.653 12 171 -1.5 101660 74
2003-01-08 08:56:27 51°28.179 2°47.643 12.6 170 -1.5 101660 74
2003-01-08 08:56:35 51°28.209 2°47.626 12.3 170 -1.5 101670 74
2003-01-08 08:56:39 51°28.224 2°47.619 11.6 171 -1.5 101670 74
2003-01-08 08:56:45 51°28.245 2°47.605 11.4 171 -1.5 101670 73
2003-01-08 08:56:51 51°28.267 2°47.594 10.6 168 -1.5 101670 73
2003-01-08 08:56:55 51°28.282 2°47.584 11 168 -1.5 101660 71
2003-01-08 08:56:59 51°28.298 2°47.578 10.5 169 -1.5 101660 71
2003-01-08 08:57:05 51°28.32 2°47.564 11.3 172 -1.6 101670 71
2003-01-08 08:57:11 51°28.343 2°47.554 10.9 172 -1.6 101670 71
2003-01-08 08:57:15 51°28.357 2°47.545 12.4 169 -1.6 101670 71
2003-01-08 08:57:21 51°28.38 2°47.533 10.9 169 -1.6 101670 71
2003-01-08 08:57:25 51°28.395 2°47.526 11.4 169 -1.6 101670 71
2003-01-08 08:57:31 51°28.417 2°47.513 10.7 162 -1.6 101670 71
2003-01-08 08:57:39 51°28.446 2°47.498 12.6 169 -1.6 101680 70
2003-01-08 08:57:43 51°28.461 2°47.49 13 167 -1.6 101680 70
2003-01-08 08:57:49 51°28.484 2°47.479 12.8 165 -1.6 101680 70
2003-01-08 08:57:55 51°28.506 2°47.469 13.3 163 -1.6 101670 70
2003-01-08 08:57:59 51°28.521 2°47.461 11.9 162 -1.6 101670 70
2003-01-08 08:58:03 51°28.536 2°47.452 11.5 158 -1.6 101660 71
2003-01-08 08:58:09 51°28.558 2°47.442 9.3 160 -1.6 101660 71
2003-01-08 08:58:15 51°28.58 2°47.429 10.4 172 -1.6 101680 69
2003-01-08 08:58:19 51°28.594 2°47.422 11 165 -1.6 101680 69
2003-01-08 08:58:23 51°28.609 2°47.415 10 172 -1.7 101670 68
2003-01-08 08:58:30 51°28.635 2°47.401 11.8 171 -1.7 101670 68
2003-01-08 08:58:35 51°28.654 2°47.392 10 170 -1.7 101670 69
2003-01-08 08:58:39 51°28.669 2°47.383 11.6 166 -1.7 101670 69
2003-01-08 08:58:43 51°28.684 2°47.375 10.2 166 -1.6 101670 70
2003-01-08 08:58:49 51°28.707 2°47.364 11 165 -1.6 101670 70
2003-01-08 08:58:53 51°28.722 2°47.355 11.5 162 -1.6 101680 70
2003-01-08 08:58:59 51°28.744 2°47.344 9.9 164 -1.6 101680 70
2003-01-08 08:59:03 51°28.759 2°47.336 10.6 163 -1.6 101680 70
2003-01-08 08:59:09 51°28.782 2°47.325 11.4 159 -1.6 101680 70
2003-01-08 08:59:19 51°28.821 2°47.304 9.1 172 -1.6 101670 71
2003-01-08 08:59:23 51°28.836 2°47.296 10.8 168 -1.6 101680 72
2003-01-08 08:59:29 51°28.859 2°47.284 9.8 166 -1.6 101680 72
2003-01-08 08:59:35 51°28.882 2°47.272 9.7 175 -1.6 101680 72
2003-01-08 08:59:39 51°28.897 2°47.264 9.5 177 -1.6 101680 72
2003-01-08 08:59:43 51°28.912 2°47.257 10.8 169 -1.5 101670 73
2003-01-08 08:59:49 51°28.935 2°47.244 9.8 183 -1.5 101670 73
2003-01-08 08:59:55 51°28.958 2°47.234 11.6 177 -1.5 101680 73
2003-01-08 08:59:59 51°28.972 2°47.226 10.8 178 -1.5 101680 73
2003-01-08 09:00:03 51°28.987 2°47.217 12.6 177 -1.5 101680 73
2003-01-08 09:00:09 51°29.01 2°47.207 11.7 180 -1.5 101680 73
2003-01-08 09:00:13 51°29.025 2°47.199 11.8 175 -1.5 101670 73
2003-01-08 09:00:19 51°29.047 2°47.187 9.6 179 -1.5 101670 73
2003-01-08 09:00:23 51°29.062 2°47.179 11.1 174 -1.5 101660 72
2003-01-08 09:00:29 51°29.085 2°47.166 12.1 176 -1.5 101660 72
2003-01-08 09:00:35 51°29.108 2°47.155 10.8 171 -1.5 101670 71
2003-01-08 09:00:39 51°29.122 2°47.146 12.7 172 -1.5 101670 71
2003-01-08 09:00:43 51°29.137 2°47.138 12.2 171 -1.5 101670 70
2003-01-08 09:00:49 51°29.16 2°47.127 12 174 -1.5 101670 70
2003-01-08 09:00:53 51°29.175 2°47.118 13.6 175 -1.5 101670 70
2003-01-08 09:00:59 51°29.198 2°47.107 12.5 173 -1.5 101670 70
2003-01-08 09:01:04 51°29.217 2°47.097 12.2 167 -1.6 101670 69
2003-01-08 09:01:09 51°29.236 2°47.087 12 172 -1.6 101670 69
2003-01-08 09:01:15 51°29.259 2°47.075 13.1 166 -1.6 101670 69
2003-01-08 09:01:19 51°29.274 2°47.068 11.9 168 -1.6 101670 69
2003-01-08 09:01:23 51°29.289 2°47.059 11.5 166 -1.6 101680 68
2003-01-08 09:01:29 51°29.311 2°47.049 9.8 172 -1.6 101680 68
2003-01-08 09:01:35 51°29.334 2°47.037 9.9 168 -1.6 101670 65
2003-01-08 09:01:39 51°29.349 2°47.03 10.2 167 -1.6 101670 65
2003-01-08 09:01:43 51°29.364 2°47.02 13.1 172 -1.6 101670 67
2003-01-08 09:01:49 51°29.387 2°47.011 12.3 170 -1.6 101670 67
2003-01-08 09:01:55 51°29.41 2°46.999 11.5 176 -1.6 101680 68
2003-01-08 09:01:59 51°29.425 2°46.992 12 177 -1.6 101680 68
2003-01-08 09:02:04 51°29.444 2°46.982 12.6 163 -1.5 101680 69
2003-01-08 09:02:09 51°29.463 2°46.972 10.6 166 -1.5 101680 69
2003-01-08 09:02:15 51°29.486 2°46.96 12.1 169 -1.5 101670 70
2003-01-08 09:02:19 51°29.501 2°46.952 10.7 166 -1.5 101670 70
2003-01-08 09:02:23 51°29.516 2°46.945 11.7 169 -1.5 101680 71
2003-01-08 09:02:29 51°29.538 2°46.934 10.4 172 -1.5 101680 71
2003-01-08 09:02:35 51°29.561 2°46.922 11.8 168 -1.5 101670 72
2003-01-08 09:02:39 51°29.576 2°46.915 11.2 170 -1.5 101670 72
2003-01-08 09:02:43 51°29.592 2°46.907 11.5 171 -1.5 101670 72
2003-01-08 09:02:49 51°29.615 2°46.896 11.8 165 -1.5 101670 72
2003-01-08 09:02:53 51°29.63 2°46.887 11.5 172 -1.5 101670 71
2003-01-08 09:02:59 51°29.652 2°46.877 9.5 172 -1.5 101670 71
2003-01-08 09:03:03 51°29.667 2°46.867 10.9 165 -1.5 101670 71
2003-01-08 09:03:09 51°29.689 2°46.857 8.6 177 -1.5 101670 71
2003-01-08 09:03:15 51°29.711 2°46.844 11.8 167 -1.5 101690 71
2003-01-08 09:03:19 51°29.727 2°46.84 8 177 -1.5 101690 71
2003-01-08 09:03:23 51°29.741 2°46.829 11.2 171 -1.5 101680 71
2003-01-08 09:03:29 51°29.764 2°46.819 8.2 179 -1.5 101680 71
2003-01-08 09:03:35 51°29.787 2°46.804 10.9 168 -1.6 101680 72
2003-01-08 09:03:39 51°29.802 2°46.798 9.6 165 -1.6 101680 72
2003-01-08 09:03:43 51°29.817 2°46.789 10.6 164 -1.5 101680 74
2003-01-08 09:03:49 51°29.84 2°46.778 11.5 173 -1.5 101680 74
2003-01-08 09:03:55 51°29.862 2°46.764 11.9 166 -1.5 101680 74
2003-01-08 09:03:59 51°29.877 2°46.757 10.7 175 -1.5 101680 74
2003-01-08 09:04:03 51°29.892 2°46.747 11.3 171 -1.4 101680 75
2003-01-08 09:04:09 51°29.915 2°46.738 10.6 169 -1.4 101680 75
2003-01-08 09:04:13 51°29.93 2°46.729 12.8 173 -1.4 101680 74
2003-01-08 09:04:19 51°29.953 2°46.717 12.3 168 -1.4 101680 74
2003-01-08 09:04:23 51°29.968 2°46.71 10.5 172 -1.5 101680 72
2003-01-08 09:04:29 51°29.991 2°46.697 11.2 175 -1.5 101680 72
2003-01-08 09:04:35 51°30.014 2°46.688 9.3 173 -1.5 101680 70
2003-01-08 09:04:39 51°30.029 2°46.679 12.4 175 -1.5 101680 70
2003-01-08 09:04:43 51°30.045 2°46.671 11.6 170 -1.5 101680 69
2003-01-08 09:04:49 51°30.067 2°46.66 10.3 170 -1.5 101680 69
2003-01-08 09:04:53 51°30.082 2°46.652 10.2 170 -1.6 101680 68
2003-01-08 09:04:59 51°30.105 2°46.639 10.6 167 -1.6 101680 68
2003-01-08 09:05:04 51°30.124 2°46.629 10.2 163 -1.6 101690 68
2003-01-08 09:05:09 51°30.142 2°46.619 11 167 -1.6 101690 68
2003-01-08 09:05:15 51°30.165 2°46.607 10.4 165 -1.6 101680 68